Overview Statistics Trail Chart Weather Telemetry Raw packets
 

This is the latest recevied weather packets stored in our database for station/object KC5DAQ-28. If no packets are shown the sender has not sent any weather packets the latest 10 day(s).

<< 67 68 69 70 71 72 73 >>
Time Temp. Humidity Pressure Rain* Wind** Luminosity Snow
1788632045 33.89° C 62% 1007.1 hPa 0 mm - 1125 W/m² -
1788631985 33.89° C 63% 1007.1 hPa 0 mm - 1125 W/m² -
1788631924 33.33° C 62% 1007.2 hPa 0 mm - 1125 W/m² -
1788631865 33.33° C 62% 1007.4 hPa 0 mm - 1127 W/m² -
1788631805 33.33° C 62% 1007.2 hPa 0 mm - 1127 W/m² -
1788631744 33.33° C 63% 1007.3 hPa 0 mm - 1125 W/m² -
1788631685 33.33° C 63% 1007.3 hPa 0 mm - 1125 W/m² -
1788631625 33.33° C 63% 1007.4 hPa 0 mm - 1125 W/m² -
1788631564 33.33° C 63% 1007.3 hPa 0 mm - 1157 W/m² -
1788631504 33.33° C 63% 1007.4 hPa 0 mm - 482 W/m² -
1788631449 33.33° C 63% 1007.4 hPa 0 mm - 482 W/m² -
1788631385 33.33° C 63% 1007.4 hPa 0 mm - 223 W/m² -
1788631324 33.89° C 63% 1007.4 hPa 0 mm - 223 W/m² -
1788631264 33.89° C 63% 1007.4 hPa 0 mm - 223 W/m² -
1788631204 33.89° C 63% 1007.4 hPa 0 mm - 1129 W/m² -
1788631147 33.33° C 64% 1007.4 hPa 0 mm - 1129 W/m² -
1788631085 33.89° C 64% 1007.5 hPa 0 mm - 1150 W/m² -
1788631027 33.89° C 63% 1007.4 hPa 0 mm - 1153 W/m² -
1788630964 33.89° C 63% 1007.5 hPa 0 mm - 1153 W/m² -
1788630904 33.89° C 64% 1007.5 hPa 0 mm - 1166 W/m² -
1788630845 33.89° C 63% 1007.5 hPa 0 mm - 1166 W/m² -
1788630785 33.89° C 63% 1007.6 hPa 0 mm - 1169 W/m² -
1788630724 33.89° C 64% 1007.6 hPa 0 mm - 1168 W/m² -
1788630664 33.33° C 65% 1007.6 hPa 0 mm - 1134 W/m² -
1788630604 33.33° C 64% 1007.7 hPa 0 mm - 1134 W/m² -

* Rain latest hour (hover to see other rain measurements)
** Current wind speed in m/s (hover to see current wind gust speed)